CZ-6A R/B, 60214

Orbit data source: Space-Track

CZ-6A R/B, 60214 is space debris in SSO originally from a launch on Thu, 04 Jul 2024 UTC launched from the Taiyaun Space Center, China (TSC). Debris objects in space refer to the collection of defunct objects orbiting the Earth. Examples of debris include non-operational satellites, rocket bodies, and fragments generated from explosions, collisions, or faulty payload assembly.

Loading next visibility...
Identifier
60214, 2024-126D
Orbit
SSO
Last TLE update
8 hours ago
Origin
Manufacturer
SAST
Mission
Spacecraft
Bus & Motor
CZ-6A STAGE 2, YF-115
Mass
~6,000 kg wet, ~6,000 kg dry
Launch date (UTC)
2024-07-04 (1 year ago)
Launch vehicle
Unknown
Launch site
Taiyaun Space Center, China (TSC)
Object type
Payload
Rocket body
Debris
Shape & HBR
Unknown
Radar Cross Section
Large (>1 m²)

Expand to show TLE details & history

TLE from 8 hours ago
0 CZ-6A R/B
1 60214U 24126D   25183.56465618  .00001929  00000-0  11422-3 0  9992
2 60214  97.8065 202.1510 0071378 235.3749 124.0736 15.10607498 54597
Epoch: 2025-07-02T13:33Z
TLE epoch observation values (Epoch: 2025-07-02T13:33:06.293Z)
Latitude
-0.00004°
Longitude
78.03084°
Altitude
565.301 km
Speed
7.563 km/s
True Right ascension
13h 28m 36s
True Declination
0° 00' 00"
Sunlit
Object was in daylight at epoch
Visualization orbit readout
Latitude
-82.19472°
Longitude
174.27797°
Altitude
522.094 km
Speed
7.623 km/s
Apparent Right ascension
20h 41m 05s
Apparent Declination
-61° 53' 25"
Sunlit
Object is in full shadow
Visualization observer readout
Local Sidereal Time
08:50:08
Azimuth
177.156° S
Elevation
-67.983°
Doppler factor
1
Orbital elements
Apogee altitude
580.66 km
Perigee altitude
482.023 km
Semi-major axis
6,909.479 km
Eccentricity
0.00714
Inclination
97.8065°
RAAN
202.151°
Arg. of periapsis
235.3749°
True anomaly
Unknown
Mean anomaly
124.0736°
Eccentric anomaly
Unknown
Mean motion
3.77899 °/min
Orbital period
95.26 mins
BSTAR
0.00011422
Loading maneuver chart data...
Loading SW <> Apogee altitude chart data...
Loading historical data...
Loading historical data...
Loading historical data...
Loading historical data...
Loading historical data...
Loading historical data...
Loading historical data...
Other satellites on launch #126 in the year 2024 (2024-07-04 UTC)

CZ-6A R/B Visibility forecast

Observer location: undefined°, undefined°

Span
Click to sort rows by Start time (UTC) header in descending order
Start Az.
Max El. time (UTC)
Max El. Az.
Max El.
End time (UTC)
End Az.
6 mins2025-07-03 00:48:59.697Z137.703° SSE2025-07-03 00:51:59.697Z71.418° E33.574°2025-07-03 00:54:59.697Z7.027° NNE
6 mins2025-07-03 13:58:59.697Z23.577° NE2025-07-03 14:00:59.697Z66.622° ENE41.076°2025-07-03 14:04:59.697Z183.641° SSW
|